Albion Park Observation History
Time Wind Speed Temp Pressure Rel. Hum Rain
04/08:30am W 6-8 kts 12.2°c 1032.8 hPa 57% 0.0mm
04/08:00am W 6-9 kts 11.5°c 1032.7 hPa 59% 0.0mm
04/07:30am WSW 6-9 kts 11.1°c 1032.3 hPa 60% 0.0mm
04/07:00am SW 6-13 kts 10.3°c 1032.0 hPa 63% 0.0mm
04/06:30am SW 10-15 kts 11.4°c 1031.7 hPa 58% 0.0mm
04/06:00am SSW 10-15 kts 11.6°c 1031.5 hPa 58% 0.0mm
04/05:30am SW 10-14 kts 11.9°c 1031.1 hPa 55% 0.0mm
04/05:00am SW 9-17 kts 12.1°c 1030.8 hPa 55% 0.0mm
04/04:30am SW 12-18 kts 12.6°c 1030.7 hPa 53% 0.0mm
04/04:00am SW 7-11 kts 12.1°c 1030.4 hPa 56% 0.0mm
04/03:30am SW 10-15 kts 12.3°c 1030.3 hPa 55% 0.0mm
04/03:00am SSW 11-19 kts 12.3°c 1030.5 hPa 55% 0.0mm
04/02:38am SSW 15-25 kts 12.5°c 1030.4 hPa 54% 0.0mm
04/02:30am SW 16-24 kts 12.6°c 1030.3 hPa 54% 0.0mm
04/02:00am SW 13-19 kts 12.4°c 1030.3 hPa 56% 0.0mm
04/01:30am SW 15-21 kts 12.6°c 1030.2 hPa 56% 0.0mm
04/01:00am SW 14-18 kts 12.9°c 1030.1 hPa 54% 0.0mm
04/12:30am SSW 17-26 kts 12.9°c 1030.1 hPa 56% 0.0mm
04/12:09am SSW 15-27 kts 13.1°c 1030.3 hPa 59% 0.0mm
04/12:00am SSW 14-21 kts 12.8°c 1030.2 hPa 60% 0.0mm
Time Wind Speed Temp Pressure Rel. Hum Rain
03/11:30pm SSW 12-17 kts 12.9°c 1030.3 hPa 60% 0.0mm
03/11:00pm SW 11-21 kts 13.1°c 1030.3 hPa 63% 0.0mm
03/10:30pm SW 9-12 kts 12.9°c 1030.2 hPa 62% 0.0mm
03/10:00pm SSW 11-19 kts 13.1°c 1029.9 hPa 59% 0.0mm
03/09:30pm SSW 12-19 kts 13.4°c 1029.7 hPa 60% 0.0mm
03/09:00pm SSW 13-19 kts 13.5°c 1029.6 hPa 64% 0.0mm
03/08:30pm SSW 9-20 kts 13.4°c 1029.3 hPa 66% 0.0mm
03/08:00pm SSW 12-18 kts 13.2°c 1029.0 hPa 67% 0.0mm
03/07:30pm SSW 8-13 kts 13.5°c 1028.6 hPa 69% 0.0mm
03/07:00pm S 7-12 kts 13.1°c 1028.2 hPa 69% 0.0mm
03/06:30pm S 11-15 kts 13.3°c 1027.7 hPa 66% 0.0mm
03/06:00pm SSW 9-13 kts 13.7°c 1027.0 hPa 60% 0.0mm
03/05:30pm SSW 6-9 kts 13.2°c 1026.5 hPa 61% 0.0mm
03/05:00pm S 7-9 kts 13.4°c 1026.0 hPa 59% 0.0mm
03/04:30pm S 8-12 kts 14.6°c 1025.5 hPa 52% 0.0mm
03/04:00pm SSE 6-10 kts 16.3°c 1025.0 hPa 45% 0.0mm
03/03:30pm S 9-14 kts 16.8°c 1024.4 hPa 42% 0.0mm
03/03:00pm S 10-14 kts 17.2°c 1024.1 hPa 39% 0.0mm
03/02:30pm S 11-17 kts 17.3°c 1023.6 hPa 37% 0.0mm
03/02:00pm S 13-19 kts 17.5°c 1023.3 hPa 37% 0.0mm
03/01:30pm SSW 9-17 kts 16.8°c 1023.0 hPa 42% 0.0mm
03/01:00pm SSW 13-19 kts 17.9°c 1022.7 hPa 38% 0.0mm
03/12:30pm SSW 15-21 kts 17.5°c 1022.7 hPa 38% 0.0mm
03/12:00pm SSW 14-20 kts 17.9°c 1022.7 hPa 40% 0.0mm
03/11:54am SSW 15-25 kts 17.7°c 1022.7 hPa 41% 0.0mm
03/11:30am SSW 14-22 kts 17.6°c 1022.6 hPa 42% 0.0mm
03/11:18am SSW 16-26 kts 17.3°c 1022.8 hPa 39% 0.0mm
03/11:00am SW 15-23 kts 17.0°c 1022.7 hPa 39% 0.0mm
03/10:30am SW 15-23 kts 16.7°c 1022.8 hPa 49% 0.0mm
03/10:00am SW 15-20 kts 16.4°c 1022.4 hPa 47% 0.0mm
03/09:30am SW 14-19 kts 16.6°c 1022.0 hPa 47% 0.0mm
03/09:07am WSW 15-30 kts 15.7°c 1021.2 hPa 50% 0.0mm
03/09:00am WSW 15-23 kts 15.6°c 1021.3 hPa 51% 0.0mm
03/08:30am WSW 11-16 kts 14.5°c 1021.2 hPa 55% 0.0mm
03/08:00am W 12-16 kts 13.7°c 1020.7 hPa 57% 0.0mm
03/07:30am W 11-14 kts 12.8°c 1020.1 hPa 60% 0.0mm
03/07:00am WNW 11-14 kts 11.9°c 1019.5 hPa 63% 0.0mm
03/06:30am W 12-15 kts 12.1°c 1018.9 hPa 63% 0.0mm
03/06:00am W 15-19 kts 12.7°c 1018.6 hPa 62% 0.0mm
03/05:30am WSW 16-22 kts 12.8°c 1018.4 hPa 62% 0.0mm
03/05:00am WSW 13-16 kts 12.1°c 1017.5 hPa 63% 0.0mm
03/04:30am WSW 19-26 kts 12.5°c 1017.8 hPa 61% 0.0mm
03/04:00am WSW 20-27 kts 12.5°c 1017.4 hPa 61% 0.0mm
03/03:30am WSW 21-26 kts 12.6°c 1017.0 hPa 61% 0.0mm
03/03:00am WSW 27-32 kts 12.6°c 1016.8 hPa 60% 0.0mm
03/02:30am WSW 26-33 kts 12.7°c 1016.4 hPa 60% 0.0mm
03/02:00am WSW 26-37 kts 12.6°c 1016.2 hPa 60% 0.0mm
03/01:53am WSW 26-37 kts 12.8°c 1016.2 hPa 60% 0.0mm
03/01:30am WSW 28-35 kts 12.6°c 1015.6 hPa 62% 0.0mm
03/01:08am WSW 27-37 kts 12.8°c 1016.0 hPa 61% 0.0mm
03/01:00am WSW 27-36 kts 12.5°c 1016.0 hPa 62% 0.0mm
03/12:38am WSW 25-35 kts 12.6°c 1016.1 hPa 61% 0.0mm
03/12:30am WSW 23-31 kts 12.4°c 1016.1 hPa 62% 0.0mm
03/12:05am W 15-25 kts 12.2°c 1016.6 hPa 62% 0.0mm
03/12:00am W 13-25 kts 12.0°c 1016.7 hPa 63% 0.0mm
Time Wind Speed Temp Pressure Rel. Hum Rain
02/11:34pm W 15-27 kts 12.2°c 1017.0 hPa 62% 0.0mm
02/11:30pm W 13-21 kts 12.0°c 1017.0 hPa 62% 0.0mm
02/11:00pm WSW 15-20 kts 11.9°c 1017.2 hPa 62% 0.0mm
02/10:50pm WSW 15-25 kts 11.7°c 1017.0 hPa 62% 0.0mm
02/10:30pm WSW 16-25 kts 11.6°c 1017.3 hPa 62% 0.0mm
02/10:00pm W 9-17 kts 11.1°c 1017.4 hPa 64% 0.0mm
02/09:30pm NW 11-17 kts 11.1°c 1017.4 hPa 62% 0.0mm
02/09:00pm WNW 13-20 kts 10.6°c 1017.3 hPa 64% 0.0mm
02/08:30pm W 12-17 kts 10.2°c 1017.0 hPa 66% 0.0mm
02/08:00pm W 9-14 kts 10.3°c 1017.0 hPa 66% 0.0mm
02/07:30pm W 11-16 kts 10.4°c 1017.0 hPa 65% 0.0mm
02/07:00pm W 10-15 kts 10.7°c 1017.0 hPa 65% 0.0mm
02/06:30pm WNW 11-14 kts 10.9°c 1016.6 hPa 65% 0.0mm
02/06:00pm W 11-15 kts 11.1°c 1016.3 hPa 65% 0.0mm
02/05:30pm W 15-20 kts 11.8°c 1016.0 hPa 62% 0.0mm
02/05:00pm W 16-21 kts 12.7°c 1015.5 hPa 60% 0.0mm
02/04:30pm WSW 9-15 kts 13.6°c 1015.5 hPa 57% 0.0mm
02/04:00pm W 13-17 kts 14.4°c 1015.3 hPa 55% 0.0mm
02/03:30pm W 13-19 kts 14.8°c 1015.0 hPa 55% 0.0mm
02/03:00pm W 16-22 kts 15.2°c 1014.6 hPa 53% 0.0mm
02/02:30pm WSW 9-13 kts 15.9°c 1014.4 hPa 52% 0.0mm
02/02:00pm SW 14-19 kts 15.6°c 1014.2 hPa 50% 0.0mm
02/01:30pm WSW 15-21 kts 16.0°c 1014.1 hPa 49% 0.0mm
02/01:00pm SW 12-17 kts 16.3°c 1014.2 hPa 49% 0.0mm
02/12:30pm SW 17-26 kts 15.7°c 1013.9 hPa 51% 0.0mm
02/12:01pm SW 15-25 kts 15.2°c 1014.1 hPa 51% 0.0mm
02/12:00pm SW 16-25 kts 15.0°c 1014.0 hPa 51% 0.0mm
02/11:30am SW 15-26 kts 15.3°c 1014.1 hPa 50% 0.0mm
02/11:00am WSW 18-25 kts 14.0°c 1014.0 hPa 54% 0.0mm
02/10:30am WSW 17-24 kts 13.8°c 1014.0 hPa 55% 0.0mm
02/10:00am WSW 16-21 kts 12.8°c 1013.9 hPa 59% 0.0mm
02/09:30am WSW 16-20 kts 11.7°c 1014.0 hPa 62% 0.0mm
02/09:00am WSW 13-17 kts 11.6°c 1013.8 hPa 65% 0.2mm
02/08:30am W 17-22 kts 10.0°c 1013.6 hPa 70% 0.2mm
02/08:00am W 16-20 kts 9.8°c 1013.5 hPa 71% 0.2mm
02/07:30am W 15-19 kts 9.3°c 1013.4 hPa 75% 0.2mm
02/07:00am W 11-17 kts 9.0°c 1013.6 hPa 76% 0.2mm
02/06:30am W 14-19 kts 9.0°c 1013.6 hPa 77% 0.2mm
02/06:00am W 11-16 kts 9.6°c 1013.0 hPa 71% 0.2mm
02/05:30am W 14-19 kts 9.3°c 1012.4 hPa 74% 0.0mm
02/05:00am W 19-25 kts 10.3°c 1011.6 hPa 62% 0.0mm
02/04:30am W 13-21 kts 10.2°c 1011.0 hPa 61% 0.0mm
02/04:20am W 15-25 kts 9.7°c 1010.9 hPa 63% 0.0mm
02/04:00am W 19-26 kts 9.7°c 1010.5 hPa 62% 0.0mm
02/03:30am W 21-29 kts 9.8°c 1010.5 hPa 62% 0.0mm
02/03:00am W 21-27 kts 9.7°c 1010.4 hPa 63% 0.0mm
02/02:30am W 21-27 kts 9.5°c 1010.6 hPa 64% 0.0mm
02/02:00am W 21-29 kts 9.6°c 1010.6 hPa 62% 0.0mm
02/01:30am W 20-26 kts 9.7°c 1010.7 hPa 62% 0.0mm
02/01:00am W 20-26 kts 10.0°c 1010.6 hPa 61% 0.0mm
02/12:42am W 18-28 kts 10.2°c 1010.8 hPa 61% 0.0mm
02/12:30am W 16-23 kts 10.1°c 1010.7 hPa 61% 0.0mm
02/12:17am W 15-25 kts 10.1°c 1010.9 hPa 61% 0.0mm
02/12:00am W 12-23 kts 10.2°c 1011.0 hPa 61% 0.0mm